THORAD AGENA D DEB, 42546

Orbit data source: Space-Track

THORAD AGENA D DEB, 42546 is space debris in SSO originally from a launch on Wed, 08 Apr 1970 UTC launched from the Air Force Western Test Range (AFWTR). Debris objects in space refer to the collection of defunct objects orbiting the Earth. Examples of debris include non-operational satellites, rocket bodies, and fragments generated from explosions, collisions, or faulty payload assembly.

Loading next visibility...
Identifier
42546, 1970-025TC
Orbit
SSO
Country
Flag of USUS
Related business
Manufacturer
Unknown
Mission
Spacecraft
Bus & Motor
Unknown
Mass
Unknown
Launch date (UTC)
1970-04-08 (56 years ago)
Launch vehicle
Unknown
Launch site
Air Force Western Test Range (AFWTR)
Object type
Payload
Rocket body
Debris
Shape & HBR
Unknown shape, 0.1 m
Radar Cross Section
Small (<0.1 m²)

Expand to show TLE details & history
Last TLE update: 3 days ago

TLE from 3 days ago
0 THORAD AGENA D DEB
1 42546U 70025TC  26170.39895439  .00000568  00000-0  75707-3 0  9999
2 42546 100.1069  27.5256 0052855 294.9637  64.6019 13.64863940624903
Epoch: 2026-06-19T09:34Z
TLE epoch observation values (Epoch: 2026-06-19T09:34:29.659Z)
Latitude
-0.00001°
Longitude
-23.72647°
Altitude
1,004.259 km
Speed
7.358 km/s
True Right ascension
01h 50m 06s
True Declination
0° 00' 00"
Sunlit
Object was in daylight at epoch
Visualization orbit readout
Latitude
Unknown
Longitude
Unknown
Altitude
Unknown
Speed
Unknown
Apparent Right ascension
Unknown
Apparent Declination
Unknown
Sunlit
N/A
Visualization observer readout
Local Sidereal Time
23:19:51
Azimuth
Unknown
Elevation
Unknown
Doppler factor
Unknown
Orbital elements
Apogee altitude
1,054.449 km
Perigee altitude
976.292 km
Semi-major axis
7,393.508 km
Eccentricity
0.00529
Inclination
100.1069°
RAAN
27.5256°
Arg. of periapsis
294.9637°
True anomaly
65.15058°
Mean anomaly
64.6019°
Eccentric anomaly
64.87609°
Mean motion
3.41403 °/min
Orbital period
105.45 mins
BSTAR
0.00075707
Loading maneuver chart data...
Computing Atmospheric mass density...

Documentation

Showing up to 5 results
|